sat.trackr.live / text

‹ back to catalog

STARLINK-35148

NORAD 65844 · 2025-221X

PAYLOAD ACTIVE UNKNOWN

§ Identity

Operator
Country
US
Launch date
2025-09-29
Launch site
AFWTR
Launch vehicle
Mass (kg)
RCS (m²)

Purposes: comms

External: N2YO · Heavens-Above · Gunter

§ Orbital elements

Epoch: 2026-09-20T06:54:36.370080Z

Period
93.85 min
Inclination
53.1572°
Eccentricity
0.0001148
Mean motion
15.34402551 rev/d
Perigee alt
461.9 km
Apogee alt
463.5 km
Semi-major
6,840.8 km
B*
3.5105e-4
RAAN
260.4563°
Arg perigee
91.7557°
Mean anomaly
268.3577°
Rev number
5,458

§ Raw data

STARLINK-351481 65844U 25221X   26263.28792095  .00011504  00000+0  35105-3 0  99972 65844  53.1572 260.4563 0001148  91.7557 268.3577 15.34402551 54586

JSON: /api/v1/satellites/65844 · /tle

For live sub-satellite position, see the globe view (requires WebGL).

§ Visibility from observer

Set your observer location to see the next 7 days of passes ≥ 10°. The values pass through the URL so the page stays shareable.

No JS? Fill the form by hand. The geolocation button needs JavaScript.